Wind_Speed
87 91 91 93 95 96 99 100 101 102 103 102 99 98 99 98 96 97 95 96 94 96 94 85 79 66 52 46 42 38 30 31 28 24 23 23 21 20 21 20 17 17 19 18 21 22 25 25 28 30 31 32 33 33
91 93 94 95 95 97 102 105 106 106 105 104 103 103 102 103 102 99 101 98 92 99 99 86 69 60 50 43 41 38 31 30 28 24 25 24 24 23 21 22 20 19 21 20 20 21 22 23 25 28 31 31 32 35
92 92 94 96 97 100 105 108 109 109 109 108 106 106 106 103 98 99 110 101 95 92 97 90 65 51 42 37 37 38 32 26 26 24 25 23 23 23 23 23 23 22 21 21 21 21 20 22 24 28 29 30 31 35
93 95 96 99 101 106 110 111 113 113 110 111 110 109 107 103 103 111 107 99 98 90 91 83 61 44 38 34 35 35 30 25 26 24 24 24 26 26 26 27 25 25 25 23 24 25 25 26 26 26 30 31 32 35
97 100 100 102 107 110 112 115 117 114 113 114 115 114 111 110 111 111 108 108 96 95 83 68 54 42 36 31 32 32 29 25 25 24 24 25 26 26 26 29 31 27 26 28 26 29 30 28 27 28 30 32 34 35
100 103 106 109 112 113 115 116 118 118 120 115 118 117 111 113 116 119 107 109 101 93 80 63 50 40 35 30 31 31 27 25 26 25 26 25 26 26 26 34 33 31 29 30 31 30 33 34 34 31 29 31 35 35
104 105 108 111 113 112 115 117 117 120 121 116 117 116 115 116 117 109 113 104 95 83 69 58 50 40 34 31 30 29 26 27 24 25 25 24 25 23 28 36 39 29 32 35 35 34 36 39 39 37 34 31 30 31
106 107 110 112 114 114 116 119 120 124 123 123 119 122 117 122 110 119 120 108 99 87 69 54 47 39 35 31 29 27 26 25 26 26 23 24 25 22 28 42 41 30 32 39 39 42 40 43 43 42 40 37 32 30
109 111 112 113 115 117 118 119 122 125 129 125 117 117 123 115 120 124 109 103 91 87 72 51 44 38 35 31 29 27 26 25 26 25 21 25 25 25 38 40 36 29 30 37 43 47 44 42 45 44 43 41 37 34
114 117 117 115 119 121 122 125 127 128 128 124 117 125 126 126 111 110 105 95 85 80 71 52 41 36 32 29 28 28 25 23 25 25 23 24 27 32 34 36 32 34 32 34 40 44 45 40 44 44 42 42 41 36
116 118 119 120 123 125 127 129 130 131 132 121 129 124 117 110 108 112 108 83 81 69 64 54 40 35 30 26 24 26 26 24 25 26 25 25 28 29 30 32 32 32 31 33 37 39 41 38 41 42 42 41 40 39
120 122 123 127 126 126 132 133 135 133 127 129 129 125 123 102 120 110 96 91 69 61 57 51 40 34 30 26 24 23 25 26 25 26 26 23 23 27 28 28 27 26 26 27 29 33 34 35 38 41 42 41 40 42
124 124 125 126 126 131 132 135 139 139 128 131 129 112 104 113 96 83 79 72 62 56 51 46 38 32 29 26 24 22 23 24 23 22 22 23 23 24 25 26 27 26 26 26 27 26 27 32 37 39 41 42 39 40
128 129 129 131 136 137 140 143 141 135 128 120 127 110 109 89 101 86 67 60 56 51 46 42 35 30 28 26 23 20 22 22 21 20 20 18 19 21 22 22 22 22 22 23 24 24 26 33 36 39 41 40 38 39
135 131 131 135 143 145 145 142 135 131 125 112 113 100 97 100 79 65 56 53 50 47 41 37 32 27 28 26 22 21 21 20 20 17 15 15 16 17 18 19 20 19 17 19 22 24 26 32 36 39 41 40 39 40
136 137 140 144 143 146 147 138 126 126 119 112 106 98 92 82 65 55 52 48 46 42 38 34 29 26 26 24 20 20 19 19 18 15 14 14 14 16 16 18 18 18 17 18 21 24 28 32 35 40 41 41 40 42
140 143 150 143 147 150 139 134 120 115 117 112 109 103 85 72 60 53 49 44 41 38 34 30 27 26 25 21 19 20 20 20 17 16 14 13 13 13 15 16 18 19 18 19 22 26 29 33 35 38 43 44 44 46
145 149 148 151 147 143 133 131 125 119 106 98 104 87 73 64 57 49 42 37 37 33 29 27 26 25 23 20 20 22 22 19 18 17 15 14 14 14 14 17 17 17 19 19 21 24 29 34 39 42 43 45 48 50
150 151 147 143 135 135 129 123 109 111 107 106 83 76 64 58 50 42 37 35 32 30 28 26 26 27 25 23 23 24 23 21 20 18 16 14 16 17 17 16 16 17 17 17 19 21 24 27 31 36 41 45 47 49
149 144 133 130 122 117 114 117 116 109 90 75 71 64 56 49 43 36 33 32 31 29 28 29 32 28 26 26 27 26 25 23 22 19 17 17 20 18 16 17 19 18 18 19 19 19 21 24 25 27 29 33 37 41
133 124 121 113 113 116 113 97 84 76 72 66 62 54 47 42 37 33 32 32 32 32 32 32 30 28 28 29 30 29 26 22 22 22 21 19 18 19 19 19 20 20 19 19 20 20 22 24 26 27 28 30 32 34
107 107 107 105 101 94 86 79 72 68 63 59 53 47 41 37 35 33 33 34 33 32 32 30 30 31 31 30 32 31 28 27 26 24 22 21 21 21 21 21 20 20 19 20 21 21 22 23 24 26 28 30 32 34
91 87 85 82 77 73 71 66 62 60 56 52 47 41 37 37 35 32 34 34 34 35 36 34 35 37 35 34 35 33 32 32 29 26 24 23 24 22 22 22 23 22 21 22 23 23 24 25 26 27 28 30 31 33
76 73 69 66 64 61 59 56 55 53 50 46 43 39 37 35 32 33 36 35 34 35 37 37 38 39 40 38 38 38 37 34 32 30 29 28 27 26 24 24 24 24 24 24 24 24 25 26 27 28 30 31 33 33
63 61 59 58 55 54 52 51 49 48 47 45 42 37 35 34 34 34 36 36 36 37 39 39 38 40 41 41 40 41 39 36 34 32 32 31 30 29 29 29 28 27 28 28 29 29 29 31 33 34 35 37 39 40
54 53 51 50 50 48 47 46 45 44 44 43 38 34 32 33 34 35 37 37 37 38 39 39 40 41 42 43 43 43 43 41 40 40 38 36 36 35 34 34 34 34 34 35 35 35 36 38 39 40 41 43 43 43
46 45 45 45 44 43 42 42 42 42 41 38 34 32 33 33 34 36 38 38 38 39 39 41 42 42 42 42 42 43 44 44 43 42 40 39 39 39 38 38 37 36 37 37 38 39 41 42 43 45 46 45 46 46
41 41 42 43 43 43 42 40 39 38 36 35 33 31 33 35 36 37 40 41 41 42 43 42 41 41 43 44 43 44 44 43 44 45 45 45 43 41 41 41 40 40 39 39 40 42 43 45 46 47 47 48 46 46
38 40 41 42 41 39 37 37 36 36 37 37 34 32 34 36 39 41 43 43 43 44 43 42 42 43 42 43 43 43 44 45 44 43 44 43 41 41 43 41 40 40 41 42 43 44 45 47 48 48 48 46 45 43
38 39 38 36 35 36 36 36 37 38 38 38 37 36 38 40 40 42 43 44 43 41 40 40 39 39 40 42 43 42 44 44 42 42 41 40 41 41 42 43 43 43 43 44 45 46 46 47 46 46 45 43 43 45
37 35 34 34 34 34 34 34 35 35 35 35 35 37 38 39 40 40 42 40 37 36 35 35 36 37 40 41 42 42 42 41 41 39 39 39 39 38 39 40 42 42 43 43 43 44 44 44 43 41 41 41 41 42
30 30 30 30 29 29 30 31 32 33 35 35 34 35 35 33 33 35 32 27 28 31 34 36 38 41 41 43 42 42 40 38 38 39 39 39 39 39 40 40 39 41 41 42 42 41 39 39 38 40 40 40 41 43
26 27 28 28 28 28 28 29 30 30 30 31 31 32 30 28 30 33 30 29 30 36 37 37 38 37 35 35 35 35 35 34 34 36 38 39 39 40 41 38 37 37 38 38 37 37 37 37 37 37 39 41 41 42
Wind_Direction
285 290 295 298 300 302 304 306 309 310 313 316 320 324 328 330 334 335 334 335 335 337 330 331 337 328 313 305 298 295 295 293 294 292 291 285 283 273 272 266 263 259 261 265 261 251 242 239 235 234 234 233 234 230
290 292 294 296 299 301 302 304 306 309 311 315 317 323 325 330 330 333 330 335 336 332 326 325 328 325 310 302 295 291 286 288 290 284 283 285 284 275 271 267 263 257 255 258 263 261 249 242 235 233 234 233 231 225
287 290 292 295 297 298 300 302 304 308 311 314 318 320 324 327 329 332 332 330 328 329 324 321 318 318 307 296 288 286 286 288 288 279 278 280 274 273 270 266 262 260 260 257 260 262 257 247 240 232 232 233 231 225
285 287 289 292 295 296 298 301 303 305 310 313 317 320 323 325 329 331 332 330 328 326 324 317 321 314 301 291 284 284 286 282 282 278 275 270 267 269 265 267 263 257 256 254 250 252 251 248 243 239 235 230 232 233
283 286 288 290 292 293 296 299 301 306 309 312 314 318 322 326 330 331 331 327 326 324 321 318 316 313 302 289 282 281 280 280 277 274 271 266 268 266 265 262 260 258 253 251 250 246 250 251 249 241 237 236 234 232
280 283 286 289 291 294 296 299 303 306 308 312 313 317 322 327 329 328 330 327 323 319 319 319 317 312 300 290 282 279 278 273 269 268 265 266 266 266 263 258 259 258 256 252 250 248 246 245 247 245 239 235 235 235
280 284 285 288 291 293 295 298 301 303 305 309 311 314 321 322 324 328 332 325 321 313 311 317 316 310 302 289 278 274 273 272 273 267 263 264 262 263 259 260 259 252 255 254 250 247 243 241 242 243 240 237 234 234
280 282 284 286 288 290 294 296 298 301 304 307 309 316 319 322 329 330 328 326 319 314 312 318 315 310 301 288 279 271 269 268 266 261 261 262 261 258 259 257 261 253 249 253 252 250 246 239 237 237 238 236 235 232
279 281 283 285 289 291 293 295 298 300 302 306 313 316 316 321 326 326 326 321 315 316 313 315 313 308 300 289 276 269 267 264 266 263 257 257 260 250 251 262 271 269 257 250 248 249 252 240 237 235 235 237 235 233
278 280 283 286 287 290 294 296 297 300 301 307 313 313 317 317 325 324 321 318 316 314 312 311 308 304 297 286 276 274 267 261 259 262 261 260 258 260 262 266 272 268 261 250 248 246 251 240 235 235 232 233 235 232
277 280 282 284 286 290 292 294 297 298 300 307 308 313 319 322 325 319 320 313 315 313 308 306 303 300 296 286 273 269 269 267 263 264 261 257 257 264 268 266 265 264 261 255 252 250 249 238 231 230 232 229 229 231
276 278 281 284 288 290 292 294 296 297 302 304 307 312 314 320 317 318 316 310 308 309 305 299 297 297 293 282 268 263 255 253 252 253 258 265 262 255 258 261 261 261 256 252 249 246 244 232 225 224 227 226 226 230
275 278 281 284 288 289 291 293 295 297 305 305 307 315 315 316 314 308 308 305 304 305 300 295 294 294 289 278 267 261 250 247 246 250 250 252 258 257 254 251 250 249 248 246 242 239 234 224 219 220 222 225 228 232
276 278 282 285 287 288 289 290 294 299 303 309 309 316 313 313 313 309 302 301 302 299 294 291 289 287 282 272 265 257 249 248 244 248 249 254 257 255 256 254 252 251 249 246 241 233 226 218 217 219 220 226 232 232
276 279 282 284 284 287 289 292 297 300 305 309 314 311 316 310 306 299 299 301 297 292 288 284 282 281 273 266 260 252 248 247 244 248 250 255 257 254 257 254 253 249 247 244 234 226 221 217 218 219 223 228 231 230
276 279 279 281 284 285 288 295 299 302 307 310 310 313 313 307 300 299 298 294 289 285 280 278 278 274 264 259 255 251 250 248 244 246 249 251 257 253 255 252 250 247 237 233 234 228 226 224 224 224 228 232 235 236
274 275 277 280 282 285 289 294 304 307 308 308 310 311 305 300 296 294 293 288 283 277 273 272 270 262 254 253 248 248 245 246 244 245 248 246 252 255 254 253 250 241 238 232 228 228 230 233 234 233 232 235 239 241
272 275 277 279 281 285 293 296 301 305 307 305 311 303 300 293 291 291 287 281 274 268 267 264 260 255 249 242 240 243 242 245 247 246 248 246 247 249 251 248 251 253 245 242 239 235 232 232 235 238 240 242 244 245
273 276 277 280 284 289 293 295 300 300 302 300 297 294 291 287 286 285 279 270 264 262 258 253 250 246 238 234 235 239 239 240 245 242 242 243 241 244 247 248 250 248 250 252 250 248 246 244 243 244 246 248 250 252
272 275 279 282 287 292 295 297 295 296 293 292 290 287 285 282 280 277 268 259 252 250 246 241 243 243 239 231 232 234 237 240 243 243 241 238 239 245 248 243 244 245 246 246 246 245 244 245 248 250 252 253 255 257
273 277 282 286 289 290 293 288 286 288 285 285 283 282 280 278 275 265 258 249 243 241 239 240 242 243 242 233 234 233 233 237 243 242 240 240 239 241 241 242 243 244 247 250 251 253 254 254 255 257 258 258 260 261
279 282 284 285 285 282 279 280 281 280 280 279 278 277 275 269 262 255 248 242 239 241 241 241 242 241 237 237 239 238 234 232 236 241 244 244 242 242 245 247 246 246 250 253 256 257 258 259 260 261 263 264 265 266
279 278 276 274 275 275 274 274 275 275 274 274 274 271 265 259 256 254 248 244 237 236 236 234 234 235 232 231 237 238 236 236 237 239 243 242 242 244 248 249 250 250 253 257 258 259 260 261 262 264 266 268 271 273
269 268 269 270 270 269 269 269 269 270 271 270 268 265 261 260 256 248 246 243 239 238 237 236 233 233 233 231 235 240 238 239 239 238 240 241 245 248 250 251 254 255 258 260 262 263 265 268 269 270 270 271 273 275
266 267 266 266 265 265 265 265 266 267 266 264 264 264 261 259 253 248 245 244 241 239 239 238 237 236 234 233 234 240 243 242 245 246 245 248 250 252 254 255 258 263 266 269 271 273 275 277 279 281 284 285 285 285
263 262 261 260 260 262 263 264 263 262 262 263 264 262 260 256 253 251 247 243 242 241 239 238 238 239 238 238 238 237 241 244 242 243 245 249 251 254 257 258 261 261 264 266 267 270 272 275 279 282 283 283 284 286
258 258 258 259 259 259 259 259 259 260 260 261 262 260 255 253 251 248 247 246 244 242 241 239 238 239 241 242 242 243 243 245 249 249 248 250 252 253 257 260 261 264 263 263 266 268 271 273 276 278 280 282 283 286
252 253 254 256 257 257 258 260 261 261 262 263 262 259 254 250 248 246 246 244 242 242 241 242 242 242 242 242 242 243 245 247 248 250 252 254 255 256 257 259 261 263 265 267 268 270 273 274 276 278 280 282 285 288
254 254 254 255 255 257 258 259 259 258 257 256 255 252 249 246 247 247 247 246 245 245 245 245 243 242 243 245 246 247 245 244 244 247 249 252 254 256 258 260 261 262 265 268 270 273 275 275 277 280 282 285 288 288
252 253 254 256 257 256 255 255 255 254 255 254 251 248 246 245 245 246 248 248 248 248 248 247 247 248 249 246 246 245 246 248 250 251 252 251 251 252 254 258 260 262 264 267 269 272 274 276 279 283 286 287 288 288
253 254 255 256 257 257 258 258 258 257 257 255 253 251 251 250 250 249 250 254 256 256 256 255 253 250 249 251 251 249 248 249 250 251 253 254 255 257 258 259 262 266 269 272 274 275 277 281 284 285 286 287 287 287
254 256 257 258 258 258 256 256 256 254 253 253 254 255 257 256 258 261 260 262 265 263 257 253 250 248 244 245 245 247 248 247 248 249 249 251 253 255 256 258 260 264 267 271 273 276 280 282 284 286 287 288 287 287
257 257 257 255 253 251 249 248 252 257 261 264 265 263 260 259 257 258 259 251 240 238 239 241 243 246 246 246 249 250 251 251 248 248 251 253 254 255 257 259 261 264 267 271 275 278 280 283 285 287 286 286 287 290
Height
10576 10573 10570 10566 10563 10560 10554 10551 10550 10547 10546 10541 10537 10530 10522 10515 10509 10496 10485 10476 10467 10447 10425 10420 10415 10406 10395 10390 10384 10380 10376 10375 10373 10372 10372 10372 10373 10374 10373 10373 10372 10373 10373 10374 10374 10376 10377 10379 10382 10385 10388 10391 10395 10399
10558 10555 10554 10550 10547 10542 10536 10534 10532 10530 10528 10526 10520 10513 10507 10500 10493 10484 10470 10460 10452 10440 10407 10402 10395 10386 10379 10376 10372 10369 10362 10363 10363 10361 10361 10362 10363 10364 10365 10365 10365 10365 10366 10367 10368 10369 10371 10372 10375 10378 10381 10385 10387 10392
10542 10539 10536 10533 10530 10526 10519 10518 10513 10510 10510 10505 10500 10496 10491 10487 10476 10467 10450 10441 10435 10424 10403 10384 10376 10365 10361 10360 10357 10356 10351 10350 10354 10351 10351 10352 10353 10354 10356 10357 10357 10357 10359 10361 10363 10364 10366 10366 10368 10371 10374 10377 10381 10384
10526 10524 10520 10516 10511 10506 10500 10495 10493 10493 10492 10486 10483 10480 10476 10470 10460 10448 10434 10420 10410 10405 10392 10364 10364 10353 10347 10345 10342 10343 10343 10339 10342 10342 10341 10343 10343 10345 10346 10347 10348 10350 10352 10354 10355 10356 10357 10359 10361 10365 10368 10371 10374 10378
10507 10503 10501 10498 10492 10489 10485 10478 10473 10474 10474 10467 10464 10464 10456 10452 10443 10431 10416 10402 10393 10380 10369 10356 10348 10342 10334 10332 10329 10331 10332 10331 10331 10333 10333 10333 10334 10335 10337 10337 10337 10341 10344 10345 10348 10349 10350 10353 10355 10358 10360 10363 10367 10371
10491 10489 10484 10477 10473 10471 10464 10458 10452 10450 10447 10450 10444 10444 10437 10430 10421 10411 10410 10391 10374 10363 10351 10342 10336 10331 10324 10318 10318 10318 10321 10321 10321 10323 10324 10324 10324 10326 10328 10326 10327 10331 10334 10337 10338 10341 10343 10345 10346 10350 10353 10355 10359 10362
10474 10472 10466 10459 10455 10453 10447 10443 10440 10435 10434 10437 10430 10430 10425 10416 10408 10394 10387 10370 10357 10341 10331 10324 10322 10318 10314 10307 10307 10307 10309 10309 10312 10313 10312 10313 10314 10318 10318 10314 10312 10324 10325 10324 10327 10331 10333 10335 10338 10342 10345 10348 10351 10354
10454 10450 10445 10443 10440 10437 10433 10428 10425 10416 10413 10419 10413 10408 10402 10394 10384 10379 10369 10352 10337 10327 10319 10309 10308 10306 10301 10297 10296 10297 10299 10300 10301 10301 10302 10302 10304 10310 10308 10298 10302 10315 10316 10314 10317 10318 10320 10323 10327 10331 10335 10340 10344 10348
10429 10426 10426 10423 10421 10418 10415 10413 10408 10399 10394 10392 10390 10388 10384 10373 10369 10363 10348 10334 10322 10314 10310 10299 10295 10294 10290 10287 10286 10287 10289 10290 10290 10290 10292 10291 10295 10299 10290 10289 10294 10302 10304 10303 10304 10304 10307 10311 10316 10320 10326 10332 10336 10341
10411 10406 10405 10406 10401 10399 10396 10391 10385 10382 10374 10376 10375 10367 10360 10360 10357 10344 10326 10315 10309 10301 10297 10289 10283 10282 10280 10278 10275 10277 10279 10280 10279 10280 10280 10281 10282 10282 10282 10281 10286 10287 10289 10289 10289 10292 10294 10299 10304 10310 10316 10322 10328 10333
10390 10386 10385 10383 10381 10382 10377 10371 10369 10361 10354 10362 10359 10350 10346 10341 10339 10327 10311 10300 10294 10287 10285 10278 10272 10271 10270 10269 10268 10268 10268 10267 10269 10270 10269 10270 10271 10272 10273 10272 10273 10273 10275 10276 10276 10278 10282 10287 10293 10300 10306 10312 10319 10325
10369 10368 10366 10361 10366 10364 10353 10349 10342 10337 10342 10346 10342 10333 10331 10326 10320 10308 10289 10282 10277 10271 10270 10267 10261 10258 10260 10260 10260 10261 10260 10260 10262 10261 10260 10261 10263 10262 10262 10263 10264 10264 10264 10265 10266 10267 10271 10277 10283 10290 10297 10303 10310 10316
10348 10347 10346 10347 10345 10339 10333 10322 10317 10316 10327 10327 10323 10317 10313 10308 10294 10284 10272 10265 10261 10257 10256 10255 10251 10248 10249 10250 10251 10253 10254 10253 10253 10254 10253 10252 10253 10254 10254 10254 10254 10254 10254 10255 10257 10259 10264 10269 10275 10282 10288 10295 10301 10307
10326 10328 10328 10326 10314 10309 10310 10304 10293 10298 10311 10306 10299 10294 10289 10281 10268 10266 10254 10250 10247 10244 10242 10242 10241 10239 10240 10241 10241 10244 10245 10245 10245 10245 10245 10246 10246 10247 10246 10247 10246 10246 10247 10248 10250 10253 10257 10263 10269 10275 10281 10287 10292 10297
10307 10307 10309 10301 10291 10287 10277 10268 10277 10284 10285 10279 10279 10271 10263 10256 10247 10242 10238 10235 10233 10231 10229 10229 10230 10230 10231 10232 10233 10235 10235 10236 10237 10237 10237 10238 10239 10239 10239 10239 10240 10240 10241 10243 10245 10248 10252 10257 10263 10268 10274 10279 10283 10288
10287 10283 10277 10276 10278 10265 10251 10249 10259 10267 10264 10258 10256 10249 10242 10240 10231 10225 10224 10221 10220 10218 10218 10219 10219 10220 10222 10223 10225 10226 10227 10227 10228 10229 10229 10231 10232 10232 10233 10233 10234 10235 10237 10239 10241 10244 10248 10252 10257 10262 10266 10271 10275 10279
10266 10261 10246 10257 10251 10243 10233 10238 10240 10242 10239 10237 10232 10229 10223 10223 10216 10210 10210 10209 10207 10207 10207 10209 10210 10212 10214 10215 10217 10218 10218 10219 10220 10221 10222 10224 10226 10227 10227 10228 10229 10230 10232 10234 10236 10239 10242 10246 10250 10254 10258 10262 10266 10269
10238 10231 10232 10223 10226 10224 10230 10230 10225 10224 10218 10214 10214 10214 10207 10205 10199 10197 10197 10196 10195 10196 10197 10198 10201 10204 10206 10207 10209 10210 10211 10213 10213 10214 10216 10218 10220 10220 10221 10222 10224 10225 10227 10229 10231 10233 10235 10238 10241 10244 10248 10251 10255 10258
10215 10211 10200 10194 10202 10212 10215 10212 10208 10205 10195 10196 10193 10198 10190 10188 10183 10183 10184 10183 10184 10185 10187 10188 10191 10194 10196 10198 10200 10201 10204 10205 10206 10208 10211 10213 10213 10214 10215 10217 10218 10219 10221 10223 10225 10227 10230 10232 10234 10235 10238 10240 10243 10245
10187 10179 10181 10184 10189 10194 10193 10189 10186 10182 10179 10175 10177 10177 10174 10172 10169 10170 10171 10171 10172 10173 10176 10177 10179 10185 10188 10190 10192 10194 10196 10198 10200 10202 10204 10206 10206 10208 10210 10211 10212 10214 10215 10217 10219 10220 10222 10224 10225 10227 10229 10230 10232 10233
10160 10164 10170 10174 10174 10175 10172 10170 10164 10158 10158 10157 10160 10160 10159 10157 10156 10157 10158 10159 10159 10162 10165 10167 10172 10177 10180 10182 10183 10185 10187 10191 10193 10195 10196 10198 10200 10201 10203 10204 10206 10207 10209 10211 10213 10214 10216 10216 10217 10218 10219 10220 10221 10222
10147 10151 10153 10152 10152 10151 10148 10147 10142 10140 10139 10142 10143 10143 10143 10142 10141 10143 10144 10146 10149 10154 10156 10161 10165 10169 10171 10175 10176 10178 10180 10181 10184 10187 10189 10191 10192 10194 10196 10198 10199 10201 10202 10204 10206 10206 10207 10208 10209 10210 10211 10211 10210 10210
10131 10131 10129 10128 10128 10128 10126 10125 10123 10122 10124 10126 10127 10127 10127 10126 10127 10129 10131 10134 10138 10141 10144 10149 10153 10155 10159 10163 10166 10169 10171 10173 10176 10178 10181 10182 10184 10186 10189 10190 10192 10193 10195 10196 10197 10198 10199 10199 10200 10200 10200 10200 10199 10199
10106 10106 10106 10108 10109 10108 10106 10106 10106 10107 10109 10110 10110 10111 10112 10113 10115 10117 10120 10124 10128 10131 10134 10137 10141 10144 10148 10152 10155 10157 10160 10164 10167 10168 10171 10173 10176 10178 10180 10182 10184 10185 10186 10187 10188 10189 10189 10190 10190 10190 10189 10189 10188 10187
10084 10085 10087 10087 10087 10087 10088 10089 10091 10093 10093 10093 10095 10097 10099 10101 10103 10106 10110 10113 10117 10120 10123 10126 10130 10133 10136 10140 10144 10146 10149 10154 10157 10160 10161 10163 10166 10168 10170 10171 10173 10174 10175 10176 10177 10178 10178 10178 10178 10177 10177 10176 10175 10173
10066 10067 10068 10068 10069 10071 10074 10076 10077 10077 10077 10078 10081 10084 10087 10090 10093 10096 10098 10101 10104 10108 10111 10115 10118 10122 10125 10129 10132 10135 10137 10140 10145 10149 10151 10153 10155 10157 10159 10160 10162 10164 10164 10165 10166 10166 10166 10166 10166 10165 10163 10162 10161 10158
10048 10049 10050 10052 10055 10057 10059 10060 10061 10062 10063 10065 10069 10073 10075 10077 10081 10083 10086 10090 10093 10096 10100 10103 10106 10111 10115 10119 10123 10125 10128 10131 10133 10136 10140 10142 10144 10146 10147 10149 10150 10151 10152 10153 10153 10153 10153 10152 10151 10150 10148 10147 10146 10144
10033 10035 10036 10037 10039 10041 10044 10047 10048 10049 10052 10055 10057 10060 10062 10064 10068 10071 10073 10075 10078 10082 10086 10090 10095 10099 10102 10105 10108 10111 10114 10118 10121 10123 10126 10128 10130 10133 10135 10136 10138 10139 10140 10139 10140 10139 10139 10138 10137 10135 10133 10132 10131 10129
10020 10021 10022 10024 10027 10030 10032 10034 10036 10037 10038 10040 10043 10046 10049 10052 10054 10056 10059 10061 10064 10068 10073 10077 10081 10085 10088 10091 10094 10096 10099 10101 10104 10107 10111 10114 10117 10120 10121 10122 10122 10123 10125 10125 10125 10125 10124 10122 10121 10120 10118 10117 10115 10113
10006 10008 10012 10015 10016 10017 10018 10020 10021 10024 10026 10028 10031 10033 10036 10038 10041 10043 10044 10047 10052 10057 10061 10065 10069 10073 10074 10076 10078 10081 10084 10087 10092 10095 10098 10100 10102 10105 10107 10107 10108 10109 10110 10111 10111 10110 10110 10108 10107 10105 10104 10102 10100 10097
9995 9998 10000 10001 10003 10004 10006 10009 10011 10013 10015 10017 10019 10021 10024 10026 10028 10031 10031 10036 10042 10047 10052 10055 10058 10060 10060 10063 10065 10067 10070 10075 10078 10083 10085 10087 10090 10093 10095 10096 10096 10096 10096 10096 10097 10096 10095 10094 10093 10091 10089 10087 10086 10082
9986 9987 9988 9990 9992 9994 9996 9998 10000 10001 10002 10003 10006 10009 10012 10015 10017 10019 10024 10032 10036 10038 10039 10041 10041 10041 10044 10046 10050 10054 10058 10064 10068 10070 10072 10074 10077 10080 10081 10082 10084 10083 10083 10083 10083 10082 10082 10081 10080 10078 10076 10073 10070 10067
9976 9977 9979 9980 9982 9984 9987 9989 9991 9993 9994 9996 9998 9999 10002 10006 10008 10009 10014 10016 10018 10016 10017 10021 10025 10029 10035 10039 10042 10047 10050 10054 10058 10060 10063 10065 10066 10067 10067 10069 10070 10071 10071 10072 10072 10072 10071 10069 10068 10066 10062 10059 10057 10054